Flag for China Weather past 2 weeks in Guangzhou, Guangdong, China

Now
95 °F

Partly sunny.


Feels Like: 110 °F
Forecast: 83 / 98 °F
Wind: 10 mph from Southwest

Location: Canton Airport

Current Time: Jul 2, 2015 at 2:06:05 PM

Latest Report: Jul 2, 2015 at 1:30 PM


Visibility: N/A

Pressure: 29.56 "Hg

Humidity: 56%

Dew point: 77 °F

Location of GuangzhouLocation

Historic Weather in Guangzhou — Graph

°F

Guangzhou temperature yesterday

Maximum temperature yesterday: 97 °F (at 2:00 PM)
Minimum temperature yesterday: 84 °F (at 3:00 AM)
Average temperature yesterday: 90 °F

Past Weeks' High & Low Weather Summary

 TemperatureHumidityPressure
High99 °F (Jun 30, 3:00 PM)100% (Jun 22, 4:00 AM)29.83 "Hg (Jun 22, 4:00 AM)
Low77 °F (Jun 22, 2:00 PM)47% (Jun 19, 6:00 PM)29.50 "Hg (Jul 1, 4:30 PM)
Average87 °F76%29.67 "Hg
* Reported Jun 17 1:00 PM — Jul 2 1:00 PM, Guangzhou, Weather by CustomWeather, © 2015

Note: Actual official high and low records may vary slightly from our data, if they occured in-between our weather recording intervals... More about our weather records

Advertising

Guangzhou weather history for previous 24 hours

 ConditionsComfort  
Time TempWeatherWind HumidityBarometerVisibility
1:00 PM
Thu, Jul 2
95 °FPartly sunny.10 mph56%29.56 "HgN/A
12:30 PM97 °FPartly sunny.13 mph53%29.56 "HgN/A
12:00 PM95 °FPartly sunny.8 mph60%29.59 "HgN/A
11:30 AM95 °FScattered clouds.8 mph60%29.59 "HgN/A
11:00 AM95 °FScattered clouds.10 mph60%29.59 "HgN/A
10:30 AM93 °FScattered clouds.8 mph67%29.59 "HgN/A
10:00 AM93 °FScattered clouds.6 mph63%29.59 "HgN/A
9:30 AM91 °FScattered clouds.3 mph71%29.59 "HgN/A
9:00 AM90 °FScattered clouds.3 mph71%29.59 "HgN/A
8:30 AM90 °FPassing clouds.3 mph71%29.59 "HgN/A
8:00 AM88 °FSunny.1 mph79%29.59 "Hg10 mi
7:30 AM86 °FSunny.3 mph79%29.59 "Hg10 mi
7:00 AM86 °FPassing clouds.3 mph79%29.59 "HgN/A
6:30 AM86 °FPassing clouds.3 mph79%29.59 "HgN/A
5:30 AM84 °FPassing clouds.6 mph84%29.59 "HgN/A
5:00 AM86 °FPassing clouds.8 mph79%29.59 "HgN/A
4:30 AM84 °FPassing clouds.8 mph84%29.59 "HgN/A
4:00 AM86 °FPassing clouds.8 mph79%29.59 "HgN/A
3:30 AM86 °FPassing clouds.8 mph79%29.59 "HgN/A
3:00 AM86 °FPassing clouds.8 mph79%29.59 "HgN/A
2:30 AM86 °FPassing clouds.6 mph79%29.59 "HgN/A
2:00 AM86 °FPassing clouds.8 mph79%29.59 "HgN/A
1:30 AM86 °FPassing clouds.6 mph79%29.59 "HgN/A
1:00 AM88 °FClear.8 mph75%29.59 "Hg10 mi
12:30 AM88 °FClear.8 mph75%29.59 "Hg10 mi
12:00 AM88 °FPassing clouds.8 mph79%29.62 "HgN/A
11:30 PM
Wed, Jul 1
88 °FPassing clouds.6 mph79%29.62 "HgN/A
11:00 PM88 °FPassing clouds.8 mph79%29.62 "HgN/A
10:30 PM88 °FClear.13 mph84%29.59 "Hg10 mi
10:00 PM88 °FClear.8 mph84%29.59 "Hg10 mi
9:30 PM90 °FClear.8 mph79%29.59 "Hg10 mi
9:00 PM90 °FClear.10 mph79%29.56 "Hg10 mi
8:30 PM90 °FPassing clouds.10 mph75%29.56 "HgN/A
8:00 PM91 °FClear.10 mph71%29.56 "Hg10 mi
7:30 PM91 °FClear.10 mph71%29.53 "Hg10 mi
7:00 PM93 °FPassing clouds.8 mph71%29.53 "HgN/A
6:30 PM93 °FPassing clouds.10 mph67%29.53 "HgN/A
6:00 PM95 °FPartly sunny.8 mph63%29.50 "HgN/A
5:30 PM95 °FPartly sunny.8 mph63%29.50 "HgN/A
5:00 PM97 °FPartly sunny.6 mph60%29.50 "HgN/A
4:30 PM97 °FPartly sunny.3 mph53%29.50 "HgN/A
4:00 PM97 °FPartly sunny.6 mph56%29.53 "HgN/A
3:30 PM97 °FPartly sunny.6 mph53%29.53 "HgN/A
3:00 PM97 °FPartly sunny.8 mph53%29.53 "HgN/A
2:30 PM97 °FPartly sunny.8 mph53%29.56 "HgN/A
2:00 PM97 °FPartly sunny.6 mph56%29.56 "HgN/A
Weather by CustomWeather, © 2015

See weather overviewHow to use our weather pages